FW7570 Weather Reports


time (UTC)temp
C
wind
direction
speed
KPH
gust
KPH
rain 1hr
cm
rain 24hr
cm
rain mn
cm
humidity
%
barometer
mb
20260507023556 7 0 0.0 1.6 0.00 0.61 0.00 95 1012.9
20260507023113 7 0 0.0 4.8 0.00 0.61 0.00 95 1013.0
20260507022600 7 0 0.0 4.8 0.00 0.61 0.00 95 1012.9
20260507022056 7 185 0.0 4.8 0.00 0.61 0.00 95 1012.9
20260507021557 7 0 0.0 4.8 0.00 0.61 0.00 95 1012.7
20260507021056 7 188 0.0 4.8 0.00 0.61 0.00 95 1012.7
20260507020556 7 184 0.0 4.8 0.00 0.61 0.00 95 1012.8
20260507020055 7 167 0.0 4.8 0.00 0.61 0.00 95 1012.7
20260507015555 7 138 0.0 6.4 0.00 0.64 0.00 95 1012.6
20260507015055 7 221 0.0 6.4 0.00 0.64 0.00 95 1012.7
20260507014609 7 164 0.0 6.4 0.00 0.64 0.00 95 1012.6
20260507014056 7 0 0.0 3.2 0.00 0.64 0.00 95 1012.6
20260507013557 7 0 0.0 3.2 0.00 0.64 0.00 95 1012.5
20260507013112 7 142 0.0 3.2 0.00 0.64 0.00 95 1012.5
20260507012555 7 156 0.0 3.2 0.00 0.64 0.00 95 1012.5
20260507012055 7 167 0.0 1.6 0.00 0.64 0.00 95 1012.3
20260507011556 7 0 0.0 3.2 0.00 0.64 0.00 95 1012.4
20260507011055 7 0 0.0 3.2 0.00 0.64 0.00 95 1012.3
20260507010556 7 0 0.0 1.6 0.00 0.64 0.00 95 1012.2
20260507010054 7 0 0.0 1.6 0.00 0.64 0.00 95 1012.2
20260507005552 7 0 0.0 1.6 0.00 0.66 0.00 95 1012.2
20260507005051 7 0 0.0 1.6 0.00 0.66 0.00 95 1012.2
20260507004556 7 0 0.0 3.2 0.00 0.66 0.00 95 1012.2
20260507004052 7 0 0.0 3.2 0.00 0.66 0.00 95 1012.1
20260507003555 7 0 0.0 3.2 0.00 0.66 0.00 95 1012.1
20260507003055 7 0 0.0 3.2 0.00 0.66 0.00 95 1012.0
20260507002556 7 0 0.0 3.2 0.00 0.66 0.00 95 1012.0
20260507002056 7 0 0.0 3.2 0.00 0.66 0.00 95 1012.0
20260507001612 7 0 0.0 4.8 0.00 0.66 0.00 95 1011.9
20260507001055 7 0 0.0 4.8 0.00 0.66 0.00 95 1012.0
20260507000555 7 0 0.0 4.8 0.00 0.66 0.00 95 1011.9
20260507000059 7 134 1.6 4.8 0.00 0.66 0.00 95 1011.9
20260506235556 7 139 0.0 4.8 0.00 0.69 0.00 95 1011.9
20260506235054 7 182 0.0 3.2 0.00 0.69 0.00 95 1012.0
20260506234555 7 0 0.0 3.2 0.00 0.69 0.00 95 1011.9
20260506234057 7 134 0.0 3.2 0.00 0.69 0.00 95 1011.9
20260506233559 7 0 0.0 3.2 0.00 0.69 0.00 95 1011.8
20260506233059 7 163 0.0 3.2 0.00 0.69 0.00 95 1011.8
20260506232555 7 0 0.0 3.2 0.00 0.69 0.00 95 1011.7
20260506232056 7 136 0.0 3.2 0.00 0.69 0.00 95 1011.8
20260506231554 7 193 0.0 4.8 0.00 0.69 0.00 95 1011.6
20260506231056 7 0 0.0 4.8 0.00 0.69 0.00 95 1011.7
20260506230555 7 156 0.0 4.8 0.00 0.69 0.00 96 1011.7
20260506230055 7 237 0.0 3.2 0.00 0.69 0.00 96 1011.8
20260506225559 7 0 0.0 3.2 0.00 0.74 0.00 95 1011.6
20260506225056 7 0 0.0 1.6 0.00 0.74 0.00 96 1011.7
20260506224556 7 0 0.0 1.6 0.00 0.74 0.00 96 1011.7
20260506224055 7 0 0.0 1.6 0.00 0.74 0.00 96 1011.6
20260506223555 7 0 0.0 1.6 0.00 0.74 0.00 95 1011.7
20260506223115 7 0 0.0 3.2 0.00 0.74 0.00 95 1011.5
20260506222555 7 58 0.0 3.2 0.00 0.74 0.00 95 1011.5
20260506222059 7 230 0.0 8.0 0.00 0.74 0.00 95 1011.5
20260506221604 7 0 1.6 8.0 0.00 0.74 0.00 95 1011.4
20260506221056 7 132 0.0 1.6 0.00 0.74 0.00 96 1011.4
20260506220552 7 315 0.0 4.8 0.00 0.74 0.00 96 1011.4
20260506220056 7 0 0.0 4.8 0.00 0.74 0.00 96 1011.3
20260506215556 7 58 0.0 4.8 0.00 0.81 0.74 96 1011.2
20260506215056 7 108 0.0 1.6 0.00 0.81 0.74 96 1011.3
20260506214608 7 200 0.0 1.6 0.00 0.81 0.74 96 1011.2
20260506214058 7 0 0.0 1.6 0.00 0.81 0.74 96 1011.3
20260506213556 7 0 0.0 3.2 0.00 0.81 0.74 96 1011.2
20260506213100 7 0 0.0 3.2 0.00 0.81 0.74 96 1011.1
20260506212556 7 342 0.0 3.2 0.00 0.81 0.74 96 1011.0
20260506212058 7 227 0.0 3.2 0.00 0.81 0.74 96 1011.0
20260506211557 8 206 0.0 4.8 0.00 0.81 0.74 96 1010.9
20260506211056 7 203 0.0 4.8 0.00 0.81 0.74 96 1010.9
20260506210556 8 165 0.0 3.2 0.00 0.81 0.74 96 1010.9
20260506210133 7 0 0.0 3.2 0.00 0.81 0.74 96 1010.9
20260506205555 8 123 0.0 1.6 0.00 0.94 0.74 96 1010.9
20260506205055 7 0 0.0 4.8 0.00 0.94 0.74 96 1010.8
20260506204600 7 165 0.0 4.8 0.00 0.94 0.74 96 1010.9
20260506204055 7 152 0.0 4.8 0.00 0.94 0.74 96 1010.7
20260506203554 7 148 0.0 4.8 0.00 0.94 0.74 96 1010.8
20260506203104 7 130 0.0 4.8 0.00 0.94 0.74 96 1010.9
20260506202608 7 212 1.6 4.8 0.00 0.94 0.74 96 1010.7
20260506202053 7 191 0.0 3.2 0.00 0.94 0.74 96 1010.7
20260506201600 7 172 0.0 3.2 0.00 0.94 0.74 95 1010.7
20260506201054 7 156 0.0 4.8 0.00 0.94 0.74 95 1010.9
20260506200552 7 124 0.0 4.8 0.00 0.94 0.74 95 1010.8
20260506200136 7 0 0.0 3.2 0.00 0.94 0.74 95 1010.7
20260506195552 7 150 0.0 1.6 0.00 1.04 0.74 95 1010.7
20260506195056 7 0 0.0 4.8 0.00 1.04 0.74 95 1010.7
20260506194614 7 0 0.0 4.8 0.00 1.04 0.74 95 1010.7
20260506194056 7 0 0.0 4.8 0.00 1.04 0.74 95 1010.5
20260506193555 7 0 0.0 3.2 0.00 1.02 0.71 95 1010.6
20260506193055 7 169 0.0 3.2 0.00 1.02 0.71 95 1010.5
20260506192553 7 146 0.0 4.8 0.00 1.02 0.71 95 1010.5
20260506192056 8 141 0.0 4.8 0.00 1.02 0.71 95 1010.4
20260506191556 8 0 0.0 4.8 0.00 1.02 0.71 95 1010.3
20260506191056 8 143 0.0 1.6 0.00 1.02 0.71 95 1010.2
20260506190553 8 155 0.0 3.2 0.00 1.02 0.71 95 1010.2
20260506190056 8 0 0.0 4.8 0.00 1.02 0.71 95 1010.1
20260506185553 8 0 0.0 4.8 0.00 1.22 0.71 95 1010.1
20260506185052 8 135 0.0 3.2 0.00 1.22 0.71 95 1010.0
20260506184556 8 160 0.0 4.8 0.00 1.22 0.71 95 1010.0
20260506184053 8 0 0.0 4.8 0.00 1.22 0.71 95 1010.0
20260506183556 8 0 0.0 4.8 0.00 1.22 0.71 95 1010.0
20260506183054 8 0 0.0 4.8 0.00 1.22 0.71 95 1009.8
20260506182555 8 166 0.0 4.8 0.00 1.22 0.71 95 1009.7
20260506182058 8 106 1.6 4.8 0.00 1.22 0.71 95 1009.7
20260506181556 8 141 0.0 6.4 0.00 1.22 0.71 95 1009.7
20260506181056 8 0 0.0 6.4 0.00 1.22 0.71 95 1009.8
20260506180559 8 188 0.0 4.8 0.00 1.22 0.71 95 1009.6
20260506180105 8 195 1.6 6.4 0.00 1.22 0.71 95 1009.6
20260506175554 8 0 0.0 6.4 0.00 1.40 0.71 95 1009.6
20260506175057 8 170 0.0 6.4 0.00 1.40 0.71 94 1009.5
20260506174558 8 227 1.6 6.4 0.00 1.40 0.71 94 1009.5
20260506174054 8 138 0.0 3.2 0.00 1.40 0.71 94 1009.5
20260506173554 8 160 0.0 6.4 0.00 1.40 0.71 94 1009.4
20260506173116 8 0 0.0 6.4 0.00 1.40 0.71 94 1009.4
20260506172558 8 172 0.0 6.4 0.00 1.40 0.71 94 1009.3
20260506172053 8 192 0.0 6.4 0.00 1.40 0.71 94 1009.3
20260506171601 8 167 1.6 6.4 0.00 1.40 0.71 94 1009.2
20260506171057 8 229 0.0 4.8 0.00 1.40 0.71 94 1009.3
20260506170559 8 207 0.0 6.4 0.00 1.40 0.71 94 1009.3
20260506170058 8 151 0.0 6.4 0.00 1.40 0.71 94 1009.3
20260506165558 8 184 0.0 6.4 0.00 1.57 0.71 94 1009.3
20260506165056 8 127 0.0 6.4 0.00 1.57 0.71 94 1009.2
20260506164558 8 0 0.0 4.8 0.00 1.57 0.71 94 1009.1
20260506164057 8 167 0.0 4.8 0.00 1.57 0.71 94 1009.2
20260506163556 8 0 0.0 4.8 0.00 1.57 0.71 94 1009.1
20260506163103 8 249 0.0 6.4 0.00 1.57 0.71 94 1009.1
20260506162555 8 0 0.0 6.4 0.00 1.57 0.71 94 1009.1
20260506162057 8 0 0.0 4.8 0.00 1.57 0.71 94 1009.0
20260506161558 8 0 0.0 3.2 0.00 1.57 0.71 94 1009.0
20260506161057 8 162 0.0 6.4 0.00 1.57 0.71 94 1009.0
20260506160555 8 139 0.0 6.4 0.00 1.57 0.71 94 1009.0
20260506160107 8 123 1.6 4.8 0.00 1.57 0.71 94 1009.0
20260506155600 8 0 0.0 4.8 0.00 1.68 0.71 94 1008.9
20260506155057 8 245 0.0 4.8 0.00 1.68 0.71 94 1008.9
20260506154556 8 131 0.0 9.7 0.00 1.68 0.71 94 1008.8
20260506154057 8 154 1.6 9.7 0.00 1.68 0.71 94 1008.9
20260506153557 8 203 1.6 6.4 0.00 1.68 0.71 94 1008.8
20260506153057 8 156 0.0 6.4 0.00 1.68 0.71 94 1008.7
20260506152557 8 0 1.6 6.4 0.03 1.68 0.71 94 1008.7
20260506152057 8 141 0.0 6.4 0.03 1.68 0.71 94 1008.8
20260506151558 8 194 1.6 6.4 0.03 1.68 0.71 94 1008.7
20260506151057 8 0 0.0 6.4 0.03 1.68 0.71 94 1008.8
20260506150557 8 150 1.6 8.0 0.03 1.68 0.71 94 1008.6
20260506150104 8 0 1.6 8.0 0.05 1.68 0.71 94 1008.5
20260506145602 8 234 1.6 11.3 0.05 1.68 0.71 94 1008.6
20260506145057 8 0 1.6 11.3 0.05 1.65 0.69 94 1008.7
20260506144555 8 155 1.6 8.0 0.05 1.65 0.69 93 1008.7
20260506144057 8 204 1.6 8.0 0.05 1.65 0.69 93 1008.6
20260506143557 9 206 0.0 6.4 0.05 1.65 0.69 94 1008.6
20260506143055 9 0 0.0 6.4 0.08 1.65 0.69 94 1008.3
20260506142557 9 0 0.0 6.4 0.05 1.63 0.66 94 1008.3
20260506142056 9 197 0.0 6.4 0.05 1.63 0.66 94 1008.3
20260506141556 9 162 1.6 6.4 0.05 1.63 0.66 93 1008.4
20260506141056 9 230 0.0 4.8 0.05 1.63 0.66 94 1008.5
20260506140557 9 0 1.6 6.4 0.05 1.63 0.66 94 1008.2
20260506140100 9 143 0.0 6.4 0.03 1.60 0.64 94 1008.2
20260506135554 10 151 0.0 4.8 0.05 1.60 0.64 94 1008.3
20260506135055 10 159 0.0 4.8 0.03 1.57 0.64 94 1008.1
20260506134619 10 0 0.0 4.8 0.05 1.57 0.64 94 1008.1
20260506134057 10 207 0.0 3.2 0.08 1.57 0.64 94 1008.0
20260506133556 10 143 0.0 8.0 0.08 1.57 0.64 94 1008.1
20260506133059 10 41 0.0 8.0 0.05 1.57 0.61 94 1008.0
20260506132555 10 0 1.6 6.4 0.05 1.57 0.61 94 1008.0
20260506132055 10 171 0.0 6.4 0.05 1.57 0.61 94 1008.0
20260506131613 10 124 1.6 4.8 0.05 1.57 0.61 94 1008.1
20260506131053 10 165 0.0 4.8 0.05 1.57 0.61 95 1007.9
20260506130554 10 159 0.0 4.8 0.05 1.57 0.61 95 1007.9
20260506130100 10 0 0.0 4.8 0.05 1.57 0.61 94 1008.0
20260506125554 10 0 1.6 4.8 0.03 1.55 0.58 94 1007.9
20260506125054 10 207 0.0 3.2 0.03 1.55 0.58 94 1007.9
20260506124614 10 0 0.0 4.8 0.00 1.52 0.56 94 1007.8
20260506124055 10 0 0.0 6.4 0.00 1.50 0.56 94 1007.8
20260506123553 10 105 1.6 6.4 0.00 1.50 0.56 94 1007.8
20260506123103 10 0 1.6 4.8 0.00 1.50 0.56 94 1007.8
20260506122553 10 87 0.0 4.8 0.00 1.50 0.56 95 1007.7
20260506122053 10 0 1.6 6.4 0.00 1.50 0.56 94 1007.6
20260506121607 10 0 0.0 6.4 0.00 1.50 0.56 95 1007.6
20260506121055 10 122 1.6 4.8 0.00 1.50 0.56 94 1007.6
20260506120553 10 0 0.0 4.8 0.00 1.50 0.56 95 1007.7
20260506120055 10 153 1.6 4.8 0.00 1.50 0.56 95 1007.6
20260506115552 10 187 1.6 9.7 0.00 1.50 0.56 95 1007.5
20260506115052 10 0 1.6 9.7 0.00 1.50 0.56 94 1007.6
20260506114555 10 127 0.0 8.0 0.00 1.50 0.56 95 1007.6
20260506114055 10 198 1.6 6.4 0.03 1.50 0.56 95 1007.5
20260506113555 10 165 1.6 6.4 0.03 1.50 0.56 95 1007.3
20260506113053 10 143 0.0 6.4 0.03 1.50 0.56 95 1007.4
20260506112555 10 167 0.0 4.8 0.00 1.50 0.53 95 1007.5
20260506112054 10 184 0.0 6.4 0.00 1.50 0.53 95 1007.5
20260506111612 10 160 1.6 6.4 0.00 1.50 0.53 95 1007.5
20260506111053 10 146 0.0 3.2 0.00 1.50 0.53 95 1007.4
20260506110557 10 137 0.0 4.8 0.00 1.50 0.53 95 1007.4
20260506110055 10 0 0.0 4.8 0.03 1.50 0.53 95 1007.4
20260506105557 10 174 0.0 6.4 0.03 1.50 0.53 95 1007.3
20260506105057 10 148 0.0 6.4 0.05 1.50 0.53 95 1007.4
20260506104554 10 163 0.0 4.8 0.05 1.50 0.53 95 1007.2
20260506104058 10 143 1.6 4.8 0.05 1.47 0.51 95 1007.2
20260506103557 10 151 0.0 4.8 0.05 1.47 0.51 96 1007.1
20260506103104 10 138 0.0 8.0 0.08 1.47 0.51 96 1007.1
20260506102557 10 165 1.6 8.0 0.08 1.47 0.51 96 1007.0
20260506102056 10 129 0.0 6.4 0.08 1.47 0.51 96 1006.9
20260506101556 10 0 1.6 6.4 0.08 1.47 0.51 95 1007.0
20260506101054 10 208 1.6 6.4 0.08 1.47 0.51 96 1007.0
20260506100557 10 145 0.0 6.4 0.08 1.47 0.51 95 1006.9
20260506100054 10 125 0.0 3.2 0.05 1.45 0.48 95 1006.9
20260506095557 10 122 0.0 3.2 0.05 1.45 0.48 95 1006.8
20260506095055 10 0 0.0 3.2 0.03 1.42 0.46 96 1006.8
20260506094557 10 134 0.0 1.6 0.03 1.42 0.46 96 1006.8
20260506094057 10 0 0.0 1.6 0.00 1.40 0.46 96 1006.6
20260506093559 10 169 0.0 3.2 0.00 1.40 0.46 96 1006.7
20260506093059 10 0 0.0 4.8 0.00 1.40 0.43 96 1006.7
20260506092557 10 168 1.6 4.8 0.00 1.40 0.43 96 1006.6
20260506092100 10 138 0.0 3.2 0.00 1.40 0.43 96 1006.5
20260506091554 10 16 0.0 4.8 0.00 1.40 0.43 96 1006.7
20260506091057 10 250 0.0 4.8 0.03 1.40 0.43 96 1006.6
20260506090557 10 0 0.0 1.6 0.03 1.40 0.43 96 1006.6
20260506090054 10 0 0.0 4.8 0.05 1.40 0.43 96 1006.4
20260506085557 10 122 0.0 4.8 0.05 1.40 0.43 96 1006.4
20260506085057 10 133 0.0 4.8 0.05 1.40 0.43 96 1006.3
20260506084604 10 160 0.0 4.8 0.08 1.40 0.43 96 1006.2
20260506084057 10 0 0.0 3.2 0.08 1.40 0.43 96 1006.3
20260506083557 10 0 0.0 3.2 0.08 1.40 0.43 96 1006.4
20260506083115 10 0 0.0 4.8 0.08 1.37 0.41 96 1006.3
20260506082559 10 0 0.0 4.8 0.08 1.37 0.41 96 1006.3
20260506082057 10 0 0.0 3.2 0.08 1.37 0.41 96 1006.3
20260506081554 9 132 0.0 3.2 0.08 1.37 0.41 96 1006.2
20260506081056 9 0 0.0 3.2 0.08 1.35 0.38 96 1006.3
20260506080556 9 146 0.0 3.2 0.08 1.35 0.38 96 1006.3
20260506080142 9 0 0.0 1.6 0.05 1.32 0.36 96 1006.3
20260506073057 9 172 0.0 3.2 0.05 1.30 0.33 96 1006.1
20260506072557 9 191 0.0 3.2 0.05 1.30 0.33 96 1006.1
20260506072057 9 184 1.6 3.2 0.03 1.27 0.30 96 1006.1
20260506071558 9 0 0.0 3.2 0.05 1.27 0.30 96 1006.0
20260506071056 9 0 0.0 3.2 0.05 1.27 0.30 96 1006.1
20260506070556 9 0 0.0 3.2 0.05 1.27 0.30 96 1005.9
20260506070121 9 165 0.0 1.6 0.05 1.27 0.30 96 1006.0
20260506062056 8 225 0.0 3.2 0.05 1.22 0.28 96 1005.8
20260506061557 8 221 0.0 1.6 0.03 1.22 0.25 96 1005.7
20260506061057 8 212 0.0 3.2 0.03 1.22 0.25 96 1005.8
20260506060558 8 0 0.0 3.2 0.03 1.22 0.25 96 1005.8
20260506051057 9 0 0.0 1.6 0.00 1.17 0.20 96 1005.7
20260506050557 9 0 0.0 1.6 0.00 1.17 0.20 96 1005.7
20260506050104 9 157 0.0 1.6 0.00 1.17 0.20 96 1005.6
20260506045056 9 0 0.0 1.6 0.00 1.17 0.20 96 1005.7
20260506044558 9 166 0.0 3.2 0.00 1.17 0.20 96 1005.7
20260506044057 9 144 0.0 3.2 0.00 1.17 0.20 96 1005.8
20260506043557 9 155 0.0 3.2 0.00 1.17 0.20 96 1005.8
20260506043057 9 0 0.0 4.8 0.00 1.17 0.20 96 1005.8
20260506042557 9 207 0.0 4.8 0.00 1.17 0.20 96 1005.8
20260506042057 9 153 0.0 3.2 0.00 1.17 0.20 96 1005.8
20260506041619 9 0 0.0 1.6 0.00 1.17 0.20 96 1005.7
20260506041056 9 0 0.0 1.6 0.00 1.17 0.20 96 1005.9
20260506040559 9 216 0.0 1.6 0.00 1.17 0.20 96 1005.9
20260506040104 9 0 0.0 1.6 0.00 1.17 0.20 96 1005.9
20260506035558 9 154 0.0 1.6 0.00 1.17 0.20 96 1006.0
20260506035056 9 0 0.0 1.6 0.03 1.17 0.20 96 1005.9
20260506034601 9 0 0.0 1.6 0.03 1.17 0.20 96 1005.8
20260506034056 9 0 0.0 1.6 0.03 1.17 0.20 96 1006.0
20260506033557 9 0 0.0 3.2 0.03 1.17 0.20 96 1005.9
20260506033055 9 156 0.0 3.2 0.03 1.17 0.20 96 1005.8
20260506032559 10 0 0.0 1.6 0.05 1.17 0.20 96 1005.9
20260506032100 9 0 0.0 0.0 0.05 1.17 0.20 96 1006.0
20260506031600 9 206 0.0 1.6 0.05 1.17 0.20 96 1005.9
20260506031056 9 0 0.0 1.6 0.05 1.14 0.18 96 1005.9
20260506030556 9 0 0.0 1.6 0.05 1.14 0.18 96 1005.9
20260506030059 10 156 0.0 1.6 0.08 1.14 0.18 96 1006.0
20260506025601 9 0 0.0 0.0 0.08 1.14 0.18 96 1006.0
20260506025057 9 0 0.0 1.6 0.08 1.12 0.18 96 1006.0
20260506024607 9 0 0.0 1.6 0.08 1.12 0.18 96 1006.0
20260506024057 9 0 0.0 1.6 0.08 1.12 0.18 96 1006.1